Weather History for Idabel, OK

Change the Weather History Date:

Friday, June 21, 2013

  Actual Average (KDEQ) Record (KDEQ)
Temperature  
Mean Temperature 81 °F 79 °F  
Max Temperature 91 °F 90 °F 106 °F (1936)
Min Temperature 71 °F 68 °F 50 °F (1976)
Cooling Degree Days 16 14  
Month to date cooling degree days 244  
Year to date cooling degree days 461  
Since 1 June cooling degree days 244  
Growing Degree Days 31 (Base 50)    
Moisture  
Dew Point 70 °F    
Average Humidity 68    
Maximum Humidity 94    
Minimum Humidity 46    
Precipitation  
Precipitation 0.00 in 0.16 in 1.52 in (1950)
Month to date precipitation 3.20  
Year to date precipitation 24.33  
Snow  
Snow 0.00 in - - ()
Month to date snowfall  
Since 1 June snowfall  
Since 1 July snowfall  
Snow Depth -    
Sea Level Pressure  
Sea Level Pressure 30.06 in    
Wind  
Wind Speed 6 mph (SSE)    
Max Wind Speed 13 mph    
Max Gust Speed 17 mph    
Visibility 9 miles    
Events      
T = Trace of Precipitation, MM = Missing Value Source: NWS Daily Summary

Daily Weather History Graph

Daily Weather History Graph

Search for Another Location

Airport:

Trip Planner

Search our weather history database for the weather conditions in past years. The results will help you decide how hot, cold, wet, or windy it might be!

Date:

Astronomy

Jun. 21, 2013 Rise Set
Actual Time 6:08 AM CDT 8:33 PM CDT
Civil Twilight 5:39 AM CDT 9:02 PM CDT
Nautical Twilight 5:03 AM CDT 9:38 PM CDT
Astronomical Twilight 4:24 AM CDT 10:18 PM CDT
Moon 6:48 PM CDT (6/21) 4:21 AM CDT (6/21)
Length of Visible Light 15h 23m
Length of Day
14h 24m
Waxing Gibbous, 95% of the Moon is Illuminated
Jun 21
Waxing Gibbous
Jun 23
Full
Jun 29
Last Quarter
Jul 8
New
Jul 15
First Quarter

Hourly Weather History & Observations

Time (CDT) Temp. Heat Index Dew Point Humidity Pressure Visibility Wind Dir Wind Speed Gust Speed Precip Events Conditions
12:15 AM 78.8 °F - 69.8 °F 74% 30.05 in 10.0 mi SE 6.9 mph - N/A   Clear
12:35 AM 78.8 °F - 69.8 °F 74% 30.05 in 10.0 mi SE 8.1 mph - N/A   Clear
12:55 AM 78.8 °F - 69.8 °F 74% 30.05 in 10.0 mi SE 6.9 mph - N/A   Clear
1:15 AM 77.0 °F - 69.8 °F 78% 30.05 in 10.0 mi SE 6.9 mph - N/A   Clear
1:35 AM 77.0 °F - 69.8 °F 78% 30.04 in 10.0 mi SSE 6.9 mph - N/A   Clear
1:55 AM 77.0 °F - 69.8 °F 78% 30.05 in 10.0 mi SE 6.9 mph - N/A   Clear
2:15 AM 77.0 °F - 69.8 °F 78% 30.05 in 10.0 mi SE 6.9 mph - N/A   Clear
2:35 AM 77.0 °F - 69.8 °F 78% 30.04 in 10.0 mi SE 5.8 mph - N/A   Clear
2:55 AM 75.2 °F - 69.8 °F 83% 30.04 in 10.0 mi SE 5.8 mph - N/A   Clear
3:15 AM 75.2 °F - 69.8 °F 83% 30.04 in 10.0 mi SE 6.9 mph - N/A   Clear
3:35 AM 75.2 °F - 69.8 °F 83% 30.04 in 10.0 mi SE 6.9 mph - N/A   Clear
3:55 AM 75.2 °F - 69.8 °F 83% 30.05 in 10.0 mi SE 6.9 mph - N/A   Clear
4:15 AM 75.2 °F - 69.8 °F 83% 30.05 in 10.0 mi SE 5.8 mph - N/A   Clear
4:35 AM 73.4 °F - 69.8 °F 88% 30.04 in 10.0 mi SE 5.8 mph - N/A   Clear
4:55 AM 73.4 °F - 69.8 °F 88% 30.05 in 10.0 mi SSE 5.8 mph - N/A   Clear
5:15 AM 73.4 °F - 69.8 °F 88% 30.05 in 10.0 mi SSE 3.5 mph - N/A   Clear
5:35 AM 73.4 °F - 69.8 °F 88% 30.06 in 10.0 mi ESE 3.5 mph - N/A   Clear
5:55 AM 73.4 °F - 69.8 °F 88% 30.06 in 10.0 mi Calm Calm - N/A   Clear
6:15 AM 71.6 °F - 69.8 °F 94% 30.07 in 10.0 mi Calm Calm - N/A   Clear
6:35 AM 71.6 °F - 68.0 °F 88% 30.07 in 7.0 mi Calm Calm - N/A   Clear
6:55 AM 71.6 °F - 69.8 °F 94% 30.08 in 7.0 mi Calm Calm - N/A   Clear
7:15 AM 71.6 °F - 69.8 °F 94% 30.08 in 7.0 mi Calm Calm - N/A   Clear
7:35 AM 73.4 °F - 69.8 °F 88% 30.09 in 10.0 mi Calm Calm - N/A   Clear
7:55 AM 73.4 °F - 71.6 °F 94% 30.09 in 10.0 mi SSE 3.5 mph - N/A   Clear
8:15 AM 75.2 °F - 71.6 °F 89% 30.09 in 10.0 mi South 3.5 mph - N/A   Clear
8:35 AM 77.0 °F - 71.6 °F 83% 30.10 in 10.0 mi South 4.6 mph - N/A   Clear
8:55 AM 78.8 °F - 71.6 °F 78% 30.10 in 10.0 mi SSW 4.6 mph - N/A   Clear
9:15 AM 80.6 °F 84.6 °F 71.6 °F 74% 30.10 in 7.0 mi SW 6.9 mph - N/A   Clear
9:35 AM 80.6 °F 84.6 °F 71.6 °F 74% 30.10 in 10.0 mi SSW 5.8 mph - N/A   Clear
9:55 AM 82.4 °F 87.2 °F 71.6 °F 70% 30.10 in 10.0 mi South 4.6 mph - N/A   Clear
10:15 AM 84.2 °F 89.6 °F 71.6 °F 66% 30.10 in 10.0 mi South 4.6 mph - N/A   Clear
10:35 AM 86.0 °F 90.4 °F 69.8 °F 58% 30.11 in 10.0 mi South 4.6 mph - N/A   Clear
10:55 AM 86.0 °F 90.4 °F 69.8 °F 58% 30.11 in 7.0 mi South 3.5 mph - N/A   Clear
11:15 AM 86.0 °F 90.4 °F 69.8 °F 58% 30.11 in 7.0 mi South 4.6 mph - N/A   Clear
11:35 AM 87.8 °F 92.6 °F 69.8 °F 55% 30.11 in 10.0 mi SSE 5.8 mph - N/A   Clear
11:55 AM 87.8 °F 92.6 °F 69.8 °F 55% 30.11 in 7.0 mi SSE 4.6 mph - N/A   Clear
12:15 PM 87.8 °F 93.8 °F 71.6 °F 58% 30.10 in 10.0 mi SSE 8.1 mph - N/A   Clear
12:35 PM 87.8 °F 92.6 °F 69.8 °F 55% 30.10 in 7.0 mi South 8.1 mph - N/A   Clear
12:55 PM 89.6 °F 94.7 °F 69.8 °F 52% 30.10 in 10.0 mi South 8.1 mph - N/A   Clear
1:15 PM 89.6 °F 94.7 °F 69.8 °F 52% 30.10 in 7.0 mi South 6.9 mph - N/A   Clear
1:35 PM 89.6 °F 94.7 °F 69.8 °F 52% 30.10 in 10.0 mi South 8.1 mph - N/A   Clear
1:55 PM 89.6 °F 94.7 °F 69.8 °F 52% 30.09 in 10.0 mi SSE 9.2 mph - N/A   Scattered Clouds
2:15 PM 91.4 °F 96.8 °F 69.8 °F 49% 30.08 in 10.0 mi South 9.2 mph - N/A   Clear
2:35 PM 91.4 °F 96.8 °F 69.8 °F 49% 30.08 in 7.0 mi South 10.4 mph - N/A   Clear
2:55 PM 91.4 °F 96.8 °F 69.8 °F 49% 30.07 in 10.0 mi South 11.5 mph - N/A   Clear
3:15 PM 91.4 °F 96.8 °F 69.8 °F 49% 30.07 in 7.0 mi South 10.4 mph - N/A   Clear
3:35 PM 91.4 °F 96.8 °F 69.8 °F 49% 30.06 in 10.0 mi South 10.4 mph - N/A   Clear
3:55 PM 91.4 °F 95.4 °F 68.0 °F 46% 30.06 in 10.0 mi South 12.7 mph 17.3 mph N/A   Clear
4:15 PM 91.4 °F 95.4 °F 68.0 °F 46% 30.06 in 7.0 mi SSW 8.1 mph - N/A   Clear
4:35 PM 91.4 °F 96.8 °F 69.8 °F 49% 30.05 in 10.0 mi South 10.4 mph - N/A   Clear
4:55 PM 91.4 °F 96.8 °F 69.8 °F 49% 30.05 in 7.0 mi South 6.9 mph - N/A   Clear
5:15 PM 91.4 °F 95.4 °F 68.0 °F 46% 30.04 in 7.0 mi SSE 8.1 mph - N/A   Clear
5:35 PM 91.4 °F 95.4 °F 68.0 °F 46% 30.04 in 7.0 mi SSE 9.2 mph - N/A   Clear
5:55 PM 91.4 °F 96.8 °F 69.8 °F 49% 30.03 in 7.0 mi South 9.2 mph - N/A   Clear
6:15 PM 91.4 °F 95.4 °F 68.0 °F 46% 30.03 in 10.0 mi SSE 9.2 mph - N/A   Clear
6:35 PM 89.6 °F 94.7 °F 69.8 °F 52% 30.02 in 10.0 mi South 9.2 mph - N/A   Clear
6:55 PM 89.6 °F 94.7 °F 69.8 °F 52% 30.02 in 10.0 mi SSE 9.2 mph - N/A   Clear
7:15 PM 89.6 °F 94.7 °F 69.8 °F 52% 30.02 in 7.0 mi SSE 5.8 mph - N/A   Clear
7:35 PM 87.8 °F 92.6 °F 69.8 °F 55% 30.02 in 7.0 mi SSE 6.9 mph - N/A   Clear
7:55 PM 86.0 °F 90.4 °F 69.8 °F 58% 30.02 in 7.0 mi SE 5.8 mph - N/A   Clear
8:15 PM 82.4 °F 86.3 °F 69.8 °F 66% 30.02 in 10.0 mi SE 4.6 mph - N/A   Clear
8:35 PM 80.6 °F 83.9 °F 69.8 °F 70% 30.02 in 10.0 mi SE 5.8 mph - N/A   Clear
8:55 PM 80.6 °F 83.9 °F 69.8 °F 70% 30.01 in 10.0 mi SE 4.6 mph - N/A   Clear
9:15 PM 78.8 °F - 69.8 °F 74% 30.01 in 10.0 mi SE 6.9 mph - N/A   Clear
9:35 PM 78.8 °F - 69.8 °F 74% 30.02 in 7.0 mi SE 6.9 mph - N/A   Clear
9:55 PM 78.8 °F - 69.8 °F 74% 30.02 in 10.0 mi SE 6.9 mph - N/A   Clear
10:15 PM 78.8 °F - 69.8 °F 74% 30.03 in 10.0 mi SE 8.1 mph - N/A   Clear
10:35 PM 78.8 °F - 69.8 °F 74% 30.03 in 10.0 mi SE 8.1 mph - N/A   Clear
10:55 PM 78.8 °F - 69.8 °F 74% 30.03 in 10.0 mi SE 9.2 mph - N/A   Clear
11:15 PM 78.8 °F - 69.8 °F 74% 30.03 in 10.0 mi SE 8.1 mph - N/A   Clear
11:35 PM 78.8 °F - 69.8 °F 74% 30.03 in 10.0 mi SE 6.9 mph - N/A   Clear
11:55 PM 78.8 °F - 69.8 °F 74% 30.03 in 10.0 mi SE 6.9 mph - N/A   Clear